Starlink 3114

operational
NORAD ID: 49426 Int'l Des: 2021-104 Owner: SPXS Country: US Constellation: starlink
LEOCIRCULAR

关于 Starlink 3114

正在加载描述...

实时位置

正在加载3D地球...

即将过境

高度历史

Altitude vs Time

uPlot chart will show altitude changes over time

两行轨道根数

1 49426U 21104U 25257.41765856 .00000401 00000-0 43265-4 0 9995
2 49426 53.2170 300.4375 0001305 86.1321 273.9821 15.08838379212017
Epoch: Sep 14, 2025 • Age: 25 hours

当前状态

高度 539.8 km
速度 7.60 km/s
星下点 19.04°N, 52.05°W
发射日期 Nov 13, 2021
运行时间 3.8 years
类型 internet

技术详情

分类 Payload
质量 290.00 kg
干质量 270.00 kg
总质量 290.00 kg
长度 0.20 m
直径 2.80 m
跨度 9.00 m
形状 Box + pan
制造商 SPXS
平台类型 Starlink
阶段状态 In Orbit
所有者/国家 SPXS/US

大型星座

Loading constellations...